{"data":{"norad_id":36830,"intl_designator":"2010-037A","name":"NILESAT 201","alt_names":[],"object_type":"PAYLOAD","status":"ACTIVE","operator":null,"country":"EGYP","launch_date":"2010-08-04","launch_site_code":"FRGUI","launch_vehicle":null,"mission":null,"orbit_class":"UNKNOWN","rcs_meters":59.7633,"size_class":null,"mass_kg":null,"dimensions":null,"purposes":["comms"],"wikipedia_slug":null,"has_3d_model":false,"image_url":null,"decayed_at":null,"tle_current":{"epoch":"2026-09-20T03:12:05.803200Z","epoch_age_seconds":49980,"freshness":"FRESH","line1":"1 36830U 10037A   26263.13340050 -.00000062  00000+0  00000+0 0  9993","line2":"2 36830   0.0159 160.7207 0005658  19.3693 219.9779  1.00272396 59328","mean_motion":1.00272396,"eccentricity":0.0005658,"inclination_deg":0.0159,"raan_deg":160.7207,"arg_perigee_deg":19.3693,"mean_anomaly_deg":219.9779,"bstar":0,"rev_number":5932,"period_min":1436.0881533139,"perigee_km":35762.56696815,"apogee_km":35810.280385011,"semimajor_km":42164.56067658,"source":"CELESTRAK","updated_at":"2026-09-20T09:00:35.164710Z"}}}